OE-11053 Weather Reports


time (UTC)temp
F
wind
direction
speed
knots
gust
knots
rain 1hr
in
rain 24hr
in
rain mn
in
humidity
%
barometer
mb
20260903084136 72 290 3.5 9.6 0.00 0.00 0.00 53 1021.3
20260903083524 71 284 3.5 7.8 0.00 0.00 0.00 55 1021.4
20260903082524 71 289 3.5 7.8 0.00 0.00 0.00 55 1021.4
20260903081137 71 265 2.6 7.8 0.00 0.00 0.00 55 1021.4
20260903080524 71 286 2.6 7.0 0.00 0.00 0.00 57 1021.5
20260903075524 70 287 3.5 8.7 0.00 0.00 0.00 58 1021.6
20260903074137 70 291 3.5 8.7 0.00 0.00 0.00 58 1021.6
20260903073523 69 289 3.5 9.6 0.00 0.00 0.00 59 1021.6
20260903072523 70 266 2.6 7.8 0.00 0.00 0.00 58 1021.4
20260903071137 69 273 2.6 9.6 0.00 0.00 0.00 59 1021.6
20260903070524 69 250 1.7 6.1 0.00 0.00 0.00 61 1021.5
20260903065524 68 260 2.6 9.6 0.00 0.00 0.00 61 1021.6
20260903064136 68 242 2.6 9.6 0.00 0.00 0.00 62 1021.5
20260903063523 67 236 1.7 7.8 0.00 0.00 0.00 62 1021.4
20260903062524 66 237 1.7 6.1 0.00 0.00 0.00 66 1021.6
20260903061137 66 255 0.9 4.3 0.00 0.00 0.00 66 1021.7
20260903060524 65 254 0.9 5.2 0.00 0.00 0.00 66 1021.5
20260903055524 65 257 0.9 3.5 0.00 0.00 0.00 68 1021.4
20260903054136 65 266 0.9 5.2 0.00 0.00 0.00 69 1021.4
20260903053524 64 246 0.9 4.3 0.00 0.00 0.00 68 1021.5
20260903052524 64 248 0.9 4.3 0.00 0.00 0.00 69 1021.5
20260903051137 64 261 0.9 1.7 0.00 0.00 0.00 70 1021.3
20260903050523 63 283 0.9 3.5 0.00 0.00 0.00 71 1021.2
20260903045524 63 271 0.9 2.6 0.00 0.00 0.00 72 1021.2
20260903044136 63 250 0.9 2.6 0.00 0.00 0.00 72 1021.1
20260903043523 63 264 0.9 1.7 0.00 0.00 0.00 72 1021.1
20260903042524 63 239 1.7 3.5 0.00 0.00 0.00 72 1021.1
20260903041136 63 235 1.7 3.5 0.00 0.00 0.00 74 1021.0
20260903040524 63 244 0.9 1.7 0.00 0.00 0.00 74 1021.0
20260903035524 63 253 0.0 1.7 0.00 0.00 0.00 73 1021.0
20260903034523 64 268 0.9 2.6 0.00 0.00 0.00 72 1020.8
20260903033524 63 273 0.9 2.6 0.00 0.00 0.00 75 1020.8
20260903032524 63 273 0.9 3.5 0.00 0.00 0.00 75 1020.9
20260903031137 63 360 0.0 0.9 0.00 0.00 0.00 79 1020.9
20260903030524 63 96 0.9 0.9 0.00 0.00 0.00 79 1020.9
20260903025524 63 100 0.9 1.7 0.00 0.00 0.00 79 1020.8
20260903024524 63 90 0.9 1.7 0.00 0.00 0.00 79 1020.8
20260903023524 62 360 0.0 0.9 0.00 0.00 0.00 81 1020.7
20260903022524 62 348 0.0 0.9 0.00 0.00 0.00 81 1020.7
20260903021136 62 55 0.0 0.9 0.00 0.00 0.00 80 1020.6
20260903020524 62 249 0.0 1.7 0.00 0.00 0.00 78 1020.7
20260903015524 62 244 0.9 2.6 0.00 0.00 0.00 79 1020.8
20260903014136 62 267 0.9 2.6 0.00 0.00 0.00 80 1020.7
20260903013523 62 202 0.9 1.7 0.00 0.00 0.00 80 1020.6
20260903012523 62 360 0.0 1.7 0.00 0.00 0.00 80 1020.7
20260903011137 62 8 0.9 3.5 0.00 0.00 0.00 80 1020.6
20260903010524 62 358 0.9 2.6 0.00 0.00 0.00 81 1020.6
20260903005524 62 353 0.9 1.7 0.00 0.00 0.00 81 1020.5
20260903004137 63 192 0.9 1.7 0.00 0.00 0.00 79 1020.2
20260903003524 62 278 0.9 0.9 0.00 0.00 0.00 80 1020.5
20260903002524 62 290 0.9 0.9 0.00 0.00 0.00 80 1020.3
20260903001536 62 110 0.9 0.9 0.00 0.00 0.00 78 1020.3
20260903000523 62 18 0.9 2.6 0.00 0.00 0.00 79 1020.5
20260902235523 62 336 0.0 1.7 0.00 0.00 0.00 79 1020.5
20260902234137 63 330 0.9 1.7 0.00 0.00 0.00 78 1020.5
20260902233523 63 360 0.0 0.9 0.00 0.00 0.00 76 1020.5
20260902232523 63 324 0.0 0.9 0.00 0.00 0.00 77 1020.6
20260902231524 63 322 0.9 0.9 0.00 0.00 0.00 78 1020.5
20260902230523 63 309 0.0 0.9 0.00 0.00 0.00 77 1020.5
20260902225524 63 298 0.9 1.7 0.00 0.00 0.00 77 1020.5
20260902224137 64 62 0.0 1.7 0.00 0.00 0.00 76 1020.5
20260902223524 64 167 0.9 2.6 0.00 0.00 0.00 74 1020.4
20260902222524 64 199 0.9 2.6 0.00 0.00 0.00 76 1020.4
20260902221137 64 360 0.0 1.7 0.00 0.00 0.00 75 1020.1
20260902220523 64 182 1.7 2.6 0.00 0.00 0.00 74 1020.3
20260902215523 64 183 1.7 2.6 0.00 0.00 0.00 74 1020.1
20260902214137 64 155 0.9 2.6 0.00 0.00 0.00 76 1020.1
20260902213523 64 336 0.0 0.9 0.00 0.00 0.00 75 1020.1
20260902211137 64 293 0.0 1.7 0.00 0.00 0.00 75 1020.2
20260902210524 64 181 0.9 2.6 0.00 0.00 0.00 75 1020.1
20260902205524 64 186 1.7 2.6 0.00 0.00 0.00 74 1020.1
20260902204138 64 206 0.9 2.6 0.00 0.00 0.00 75 1020.1
20260902203523 64 180 1.7 3.5 0.00 0.00 0.00 75 1020.1
20260902202524 65 184 1.7 2.6 0.00 0.00 0.00 74 1020.3
20260902201137 65 181 1.7 2.6 0.00 0.00 0.00 74 1020.0
20260902200524 65 181 0.9 2.6 0.00 0.00 0.00 73 1020.2
20260902195524 66 231 0.9 1.7 0.00 0.00 0.00 72 1019.9
20260902194137 66 189 0.9 3.5 0.00 0.00 0.00 71 1019.9
20260902193524 66 180 1.7 3.5 0.00 0.00 0.00 71 1019.9
20260902192523 66 185 0.9 2.6 0.00 0.00 0.00 70 1019.9
20260902191137 67 208 0.9 1.7 0.00 0.00 0.00 69 1019.8
20260902190523 67 198 0.9 2.6 0.00 0.00 0.00 68 1019.8
20260902185524 67 250 0.9 1.7 0.00 0.00 0.00 67 1019.6
20260902184137 68 360 0.0 1.7 0.00 0.00 0.00 65 1019.5
20260902183524 68 360 0.0 0.9 0.00 0.00 0.00 64 1019.3
20260902182524 69 284 0.0 0.9 0.00 0.00 0.00 62 1019.1
20260902181137 69 288 0.9 0.9 0.00 0.00 0.00 61 1019.0
20260902180524 69 309 0.9 1.7 0.00 0.00 0.00 60 1018.9
20260902175524 70 360 0.0 0.9 0.00 0.00 0.00 59 1018.7
20260902174137 71 96 0.0 0.9 0.00 0.00 0.00 58 1018.8
20260902173523 71 51 0.0 1.7 0.00 0.00 0.00 56 1018.7
20260902172524 72 342 0.9 1.7 0.00 0.00 0.00 54 1018.6
20260902171137 73 360 1.7 4.3 0.00 0.00 0.00 52 1018.6
20260902170524 73 12 0.9 2.6 0.00 0.00 0.00 49 1018.4
20260902165524 74 13 1.7 4.3 0.00 0.00 0.00 49 1018.4
20260902164137 74 9 2.6 6.1 0.00 0.00 0.00 47 1018.3
20260902163524 75 21 2.6 7.0 0.00 0.00 0.00 46 1018.3
20260902162524 75 9 3.5 7.8 0.00 0.00 0.00 46 1018.1
20260902161137 76 345 3.5 7.0 0.00 0.00 0.00 45 1018.1
20260902160523 76 360 3.5 7.0 0.00 0.00 0.00 44 1018.1
20260902155524 77 335 2.6 7.0 0.00 0.00 0.00 43 1018.1
20260902154137 76 321 3.5 7.8 0.00 0.00 0.00 44 1018.2
20260902153524 76 278 1.7 5.2 0.00 0.00 0.00 43 1018.3
20260902152523 76 251 1.7 7.8 0.00 0.00 0.00 43 1018.3
20260902151137 77 271 1.7 7.0 0.00 0.00 0.00 43 1018.2
20260902150524 76 290 2.6 7.0 0.00 0.00 0.00 43 1018.3
20260902145524 76 271 1.7 5.2 0.00 0.00 0.00 44 1018.4
20260902144137 76 233 1.7 7.0 0.00 0.00 0.00 44 1018.4
20260902143523 76 277 1.7 7.8 0.00 0.00 0.00 43 1018.5
20260902142524 76 288 2.6 7.0 0.00 0.00 0.00 42 1018.5
20260902141137 76 198 1.7 5.2 0.00 0.00 0.00 45 1018.5
20260902140524 76 276 1.7 7.0 0.00 0.00 0.00 46 1018.5
20260902135524 75 343 1.7 5.2 0.00 0.00 0.00 45 1018.7
20260902134136 75 334 1.7 5.2 0.00 0.00 0.00 47 1018.7
20260902133524 75 330 2.6 5.2 0.00 0.00 0.00 47 1018.7
20260902132524 74 300 0.9 7.0 0.00 0.00 0.00 50 1018.9
20260902131137 75 305 2.6 7.0 0.00 0.00 0.00 49 1018.9
20260902130524 75 320 2.6 6.1 0.00 0.00 0.00 49 1019.0
20260902125524 75 343 2.6 6.1 0.00 0.00 0.00 48 1019.0
20260902124136 75 300 1.7 5.2 0.00 0.00 0.00 50 1019.0
20260902123524 74 304 2.6 4.3 0.00 0.00 0.00 51 1019.1
20260902122524 74 334 2.6 7.0 0.00 0.00 0.00 50 1019.1
20260902121137 75 340 1.7 5.2 0.00 0.00 0.00 49 1019.3
20260902120523 75 334 2.6 7.0 0.00 0.00 0.00 49 1019.3
20260902115523 74 307 2.6 5.2 0.00 0.00 0.00 50 1019.4
20260902114137 75 305 1.7 5.2 0.00 0.00 0.00 50 1019.3
20260902113524 75 342 2.6 7.0 0.00 0.00 0.00 48 1019.5
20260902112524 75 346 2.6 7.0 0.00 0.00 0.00 49 1019.8
20260902111137 75 23 1.7 5.2 0.00 0.00 0.00 48 1019.7
20260902110524 75 341 2.6 6.1 0.00 0.00 0.00 48 1019.8
20260902105523 75 268 0.9 3.5 0.00 0.00 0.00 48 1020.0
20260902104137 75 349 1.7 5.2 0.00 0.00 0.00 47 1019.9
20260902103524 75 96 0.9 2.6 0.00 0.00 0.00 47 1019.9
20260902102524 74 145 0.9 3.5 0.00 0.00 0.00 48 1020.1
20260902101137 75 332 1.7 5.2 0.00 0.00 0.00 48 1020.2
20260902100524 76 81 0.9 5.2 0.00 0.00 0.00 46 1020.1
20260902095524 76 98 1.7 4.3 0.00 0.00 0.00 45 1020.1
20260902094137 75 105 0.9 5.2 0.00 0.00 0.00 48 1020.2
20260902093524 76 124 0.9 4.3 0.00 0.00 0.00 46 1020.1
20260902092523 74 96 0.9 3.5 0.00 0.00 0.00 49 1020.3
20260902091136 74 123 1.7 3.5 0.00 0.00 0.00 49 1020.5
20260902090524 73 130 0.9 3.5 0.00 0.00 0.00 51 1020.6